ubuntuusers.de

ubuntuusers.deWikiBleachbitRevisionen

Der Artikel „Bleachbit“ hat 143 Revisionen. Die aktuelle Revision ist 16. Dezember 2014 11:39 und wurde durch frustschieber erstellt.

Um immer auf dem aktuellen Stand zu sein, kannst du den Atom Feed lesen oder abonnieren.

frustschieberfrustschieber 16. Dezember 2014 11:39 :   +Trusty 773073 Ansehen Rohformat
aascheaasche 13. Oktober 2014 22:41 :   m 758473 Ansehen Rohformat
aascheaasche 17. September 2014 15:38 :   m: Icon 752733 Ansehen Rohformat
aascheaasche 17. September 2014 15:35 :   m 752723 Ansehen Rohformat
ubotubot 19. Juli 2014 14:38 :   getestet: -saucy 740082 Ansehen Rohformat
aascheaasche 15. Dezember 2013 11:50 :   +tag Systempflege 668557 Ansehen Rohformat
mal-zeitmal-zeit 22. Oktober 2013 12:22 :   tested 13.10@amd64 648597 Ansehen Rohformat
frustschieberfrustschieber 2. Mai 2013 08:00 :   -Lucid, -Beagle 593392 Ansehen Rohformat
L.A.S.L.A.S. 2. November 2012 01:07 :   m 501707 Ansehen Rohformat
frustschieberfrustschieber 5. Oktober 2012 19:48 :   +precise 484982 Ansehen Rohformat
mgraesslinmgraesslin 17. Juli 2012 17:47 :   s/KDE/KDE Anwendungen/g da es nicht auf KDE Plasma beschränkt ist 451067 Ansehen Rohformat
aascheaasche 16. Juli 2012 05:23 :   m 450357 Ansehen Rohformat
Kuttel DaddelduKuttel Daddeldu 15. Juli 2012 16:35 :   . 450242 Ansehen Rohformat
Kuttel DaddelduKuttel Daddeldu 15. Juli 2012 16:32 :   . 450237 Ansehen Rohformat
Kuttel DaddelduKuttel Daddeldu 15. Juli 2012 16:32 :   Warnhinweis erweitert 450232 Ansehen Rohformat
ubotubot 11. April 2012 23:35 :   -maverick 403852 Ansehen Rohformat
Kuttel DaddelduKuttel Daddeldu 11. April 2012 02:29 :   -Maverick 400157 Ansehen Rohformat
Kuttel DaddelduKuttel Daddeldu 30. Januar 2012 20:16 :   m: Warnbox 364257 Ansehen Rohformat
Kuttel DaddelduKuttel Daddeldu 30. Januar 2012 00:34 :   +Warnhinweis 363997 Ansehen Rohformat
Kuttel DaddelduKuttel Daddeldu 26. Januar 2012 22:39 :   . 362692 Ansehen Rohformat
Kuttel DaddelduKuttel Daddeldu 26. Januar 2012 22:38 :   kosm. Korrekturen 362687 Ansehen Rohformat
ubotubot 28. Mai 2011 21:58 :   -jaunty 244037 Ansehen Rohformat
frustschieberfrustschieber 10. Mai 2011 18:59 :   -hardy 233211 Ansehen Rohformat
kaputtnikkaputtnik 6. Mai 2011 17:23 :   Übersichtssymbol vergessen 232046 Ansehen Rohformat
kaputtnikkaputtnik 6. Mai 2011 17:21 :   Links ergänzt 232044 Ansehen Rohformat
Alice wtfiAAlice wtfiA 30. April 2011 11:07 :   +Natty 229837 Ansehen Rohformat
ubotubot 30. April 2011 01:14 :   -karmic 229687 Ansehen Rohformat
ubotubot 30. April 2011 01:13 :   -karmic 229685 Ansehen Rohformat
think123think123 27. Januar 2011 00:33   216896 Ansehen Rohformat
ShakesbierShakesbier 23. Oktober 2010 19:55 :   -Jaunty, -Intrepid 201434 Ansehen Rohformat
Heinrich SchwieteringHeinrich Schwietering 26. Mai 2010 23:54 :   - intrepid, Paketinstallationsparser, kleinkram 186761 Ansehen Rohformat
think123think123 16. Mai 2010 02:04 :   Getestet mit Lucid 185214 Ansehen Rohformat
oliverhornoliverhorn 4. November 2009 00:48 :   Fremdpaketangabe durch neue Vorlage ersetzt 156231 Ansehen Rohformat
think123think123 8. Oktober 2009 20:53   152089 Ansehen Rohformat
jediejedie 3. August 2009 20:13 :   mehr Stichworte für die Suche 145086 Ansehen Rohformat
think123think123 4. Mai 2009 19:03   130537 Ansehen Rohformat
MichiWeMichiWe 28. März 2009 14:49 :   sprachliche Kleinigkeiten 124185 Ansehen Rohformat
Philipp BPhilipp B 28. März 2009 03:26 :   typo 124108 Ansehen Rohformat
Philipp BPhilipp B 28. März 2009 03:22 :   typo 124107 Ansehen Rohformat
Philipp BPhilipp B 27. März 2009 22:21   124016 Ansehen Rohformat
Philipp BPhilipp B 27. März 2009 22:17   124012 Ansehen Rohformat
JrgnDttrJrgnDttr 27. März 2009 20:38 :   tippos, Kommas 123995 Ansehen Rohformat
mgraesslinmgraesslin 27. März 2009 19:03 :   Umbenannt von Baustelle/Bleachbit 123962 Ansehen Rohformat
mgraesslinmgraesslin 27. März 2009 19:03 :   - inArbeit 123961 Ansehen Rohformat
mgraesslinmgraesslin 27. März 2009 19:02 :   + tag System 123960 Ansehen Rohformat
mgraesslinmgraesslin 27. März 2009 14:15 :   Syntax 123903 Ansehen Rohformat
think123think123 26. März 2009 18:09   123823 Ansehen Rohformat
GreeboGreebo 26. März 2009 17:47 :   Temporäredateien nochmal gekillt 123821 Ansehen Rohformat
think123think123 24. März 2009 20:31   123377 Ansehen Rohformat
GreeboGreebo 24. März 2009 19:24 :   Typos... :/ 123367 Ansehen Rohformat
GreeboGreebo 24. März 2009 19:20 :   Nur was vereinheitlicht 123364 Ansehen Rohformat
GreeboGreebo 24. März 2009 19:13 :   PlugIn-Beispiel angefügt. 123362 Ansehen Rohformat
think123think123 24. März 2009 19:05   123361 Ansehen Rohformat
think123think123 24. März 2009 18:53   123359 Ansehen Rohformat
think123think123 24. März 2009 18:52   123358 Ansehen Rohformat
think123think123 24. März 2009 18:52   123357 Ansehen Rohformat
think123think123 24. März 2009 18:50   123356 Ansehen Rohformat
think123think123 24. März 2009 18:46   123354 Ansehen Rohformat
think123think123 24. März 2009 18:44   123352 Ansehen Rohformat
think123think123 24. März 2009 18:44   123351 Ansehen Rohformat
think123think123 24. März 2009 18:43   123350 Ansehen Rohformat
think123think123 24. März 2009 18:42   123349 Ansehen Rohformat
GreeboGreebo 24. März 2009 18:14   123348 Ansehen Rohformat
GreeboGreebo 24. März 2009 18:13 :   Erste Version "Eigene Reinigermodule" 123347 Ansehen Rohformat
think123think123 24. März 2009 17:06   123310 Ansehen Rohformat
think123think123 24. März 2009 16:41   123302 Ansehen Rohformat
think123think123 24. März 2009 16:40   123299 Ansehen Rohformat
think123think123 24. März 2009 16:40   123297 Ansehen Rohformat
think123think123 24. März 2009 16:39   123296 Ansehen Rohformat
think123think123 24. März 2009 16:38   123295 Ansehen Rohformat
think123think123 24. März 2009 16:37   123294 Ansehen Rohformat
think123think123 24. März 2009 16:36   123292 Ansehen Rohformat
think123think123 24. März 2009 16:31   123288 Ansehen Rohformat
think123think123 24. März 2009 16:27   123286 Ansehen Rohformat
think123think123 24. März 2009 16:26   123285 Ansehen Rohformat
Philipp BPhilipp B 24. März 2009 16:17   123283 Ansehen Rohformat
Philipp BPhilipp B 24. März 2009 16:16   123280 Ansehen Rohformat
think123think123 24. März 2009 15:45   123274 Ansehen Rohformat
Philipp BPhilipp B 24. März 2009 15:43 :   syntax 123273 Ansehen Rohformat
think123think123 24. März 2009 15:21   123270 Ansehen Rohformat
think123think123 24. März 2009 15:19   123269 Ansehen Rohformat
think123think123 24. März 2009 15:18   123268 Ansehen Rohformat
think123think123 24. März 2009 15:04   123267 Ansehen Rohformat
think123think123 24. März 2009 15:03   123266 Ansehen Rohformat
think123think123 24. März 2009 15:02   123264 Ansehen Rohformat
think123think123 24. März 2009 15:02   123263 Ansehen Rohformat
think123think123 24. März 2009 15:00   123262 Ansehen Rohformat
think123think123 24. März 2009 14:56   123261 Ansehen Rohformat
think123think123 24. März 2009 14:56   123260 Ansehen Rohformat
think123think123 24. März 2009 14:55   123258 Ansehen Rohformat
GreeboGreebo 24. März 2009 14:50   123255 Ansehen Rohformat
think123think123 24. März 2009 14:44   123249 Ansehen Rohformat
think123think123 24. März 2009 14:43   123248 Ansehen Rohformat
think123think123 24. März 2009 14:43   123247 Ansehen Rohformat
think123think123 24. März 2009 14:43   123246 Ansehen Rohformat
think123think123 24. März 2009 14:42   123245 Ansehen Rohformat
think123think123 24. März 2009 14:42   123244 Ansehen Rohformat
think123think123 24. März 2009 14:41   123243 Ansehen Rohformat
think123think123 24. März 2009 14:40   123242 Ansehen Rohformat
think123think123 24. März 2009 14:39   123241 Ansehen Rohformat